Upington, South Africa

7:57 PM SAST on February 24, 2017 (GMT +0200)
Upington

Weather History for FAUP - December, 2012

Change the Weather History Date:

Wednesday, December 5, 2012

  Actual Average Record
Temperature  
Mean Temperature 80 °F -  
Max Temperature 98 °F 92 °F 108 °F (2015)
Min Temperature 62 °F 64 °F 55 °F (2007)
Cooling Degree Days 15    
Growing Degree Days 30 (Base 50)    
Moisture  
Dew Point 38 °F    
Average Humidity 25    
Maximum Humidity 59    
Minimum Humidity 4    
Precipitation  
Precipitation 0.00 in 0.02 in - ()
Sea Level Pressure  
Sea Level Pressure 29.86 in    
Wind  
Wind Speed 7 mph ()    
Max Wind Speed 18 mph    
Max Gust Speed -    
Visibility 6.2 miles    
Events      
Averages and records for this station are not official NWS values.
T = Trace of Precipitation, MM = Missing Value Source: Averaged Metar Reports

Daily Weather History Graph

Daily Weather History Graph

Search for Another Location

Airport or City:

Trip Planner

Search our weather history database for the weather conditions in past years. The results will help you decide how hot, cold, wet, or windy it might be!

Date:

Astronomy

Dec. 05, 2012 Rise Set
Actual Time 5:29 AM SAST 7:21 PM SAST
Civil Twilight 5:03 AM SAST 7:48 PM SAST
Nautical Twilight 4:31 AM SAST 8:20 PM SAST
Astronomical Twilight 3:57 AM SAST 8:54 PM SAST
Moon No Moon Rise 11:16 AM SAST (12/5)
Length of Visible Light 14h 45m
Length of Day
13h 51m
Waning Gibbous, 63% of the Moon is Illuminated
Dec 5
Waning Gibbous
Dec 6
Last Quarter
Dec 13
New
Dec 20
First Quarter
Dec 28
Full

Hourly Weather History & Observations

Time (SAST) Temp. Dew Point Humidity Pressure Visibility Wind Dir Wind Speed Gust Speed Precip Events Conditions
12:00 AM 73.4 °F 37.4 °F 27% 29.89 in - South 10.4 mph - N/A   Unknown
1:00 AM 71.6 °F 37.4 °F 29% 29.89 in - South 5.8 mph - N/A   Clear
2:00 AM 70 °F 40 °F 22%  in 25 mi South 6.9 mph - -   Clear
2:00 AM 69.8 °F 39.2 °F 33% 29.86 in - South 6.9 mph - N/A   Clear
3:00 AM 66.2 °F 41.0 °F 40% 29.89 in - South 4.6 mph - N/A   Clear
4:00 AM 64.4 °F 41.0 °F 42% 29.89 in - South 2.3 mph - N/A   Clear
5:00 AM 63 °F 48 °F 48%  in 25 mi SSW 5.8 mph - -   Scattered Clouds
5:00 AM 62.6 °F 48.2 °F 59% 29.89 in - SSW 5.8 mph - N/A   Clear
6:00 AM 62.6 °F 46.4 °F 55% 29.89 in - SW 5.8 mph - N/A   Clear
6:29 AM 66.2 °F 44.6 °F 46% 29.92 in - SSW 6.9 mph - N/A   Clear
7:00 AM 68.0 °F 44.6 °F 43% 29.89 in - SSW 10.4 mph - N/A   Clear
7:40 AM 71.6 °F 46.4 °F 41% 29.89 in - South 8.1 mph - N/A   Clear
8:00 AM 73 °F 47 °F 29%  in 25 mi South 8.1 mph - -   Scattered Clouds
8:00 AM 71.6 °F 46.4 °F 41% 29.92 in - South 6.9 mph - N/A   Clear
8:23 AM 77.0 °F 42.8 °F 29% 29.89 in - South 5.8 mph - N/A   Clear
9:00 AM 80.6 °F 41.0 °F 24% 29.89 in - South 5.8 mph - N/A   Clear
9:21 AM 86.0 °F 32.0 °F 14% 29.86 in - SE 6.9 mph - N/A   Clear
10:00 AM 86.0 °F 32.0 °F 14% 29.86 in - East 8.1 mph - N/A   Clear
11:00 AM 87 °F 34 °F 8%  in 25 mi ENE 6.9 mph - -   Scattered Clouds
11:00 AM 86.0 °F 33.8 °F 15% 29.86 in - ENE 6.9 mph - N/A   Clear
11:27 AM 89.6 °F 35.6 °F 15% 29.86 in - ENE 8.1 mph - N/A   Clear
12:00 PM 89.6 °F 35.6 °F 15% 29.83 in 6.2 mi ENE 4.6 mph - N/A   Partly Cloudy
1:00 PM 93.2 °F 35.6 °F 13% 29.83 in 6.2 mi NW 3.5 mph - N/A   Partly Cloudy
2:00 PM 97 °F 35 °F 5%  in 25 mi WNW 6.9 mph - -   Scattered Clouds
2:00 PM 96.8 °F 33.8 °F 11% 29.80 in - WNW 6.9 mph - N/A   Clear
5:00 PM 97 °F 29 °F 4%  in 25 mi West 18.4 mph - -   Scattered Clouds
5:00 PM 95.0 °F 30.2 °F 10% 29.74 in 6.2 mi West 17.3 mph - N/A   Partly Cloudy
6:00 PM 95.0 °F 32.0 °F 11% 29.74 in 6.2 mi West 12.7 mph - N/A   Partly Cloudy
7:00 PM 91.4 °F 32.0 °F 12% 29.77 in 6.2 mi WSW 15.0 mph - N/A   Partly Cloudy
8:00 PM 86 °F 32 °F 7%  in 25 mi WSW 9.2 mph - -   Scattered Clouds
8:00 PM 86.0 °F 32.0 °F 14% 29.80 in 6.2 mi WSW 9.2 mph - N/A   Partly Cloudy
9:00 PM 78.8 °F 32.0 °F 18% 29.83 in - SSW 5.8 mph - N/A   Unknown
10:00 PM 75.2 °F 37.4 °F 25% 29.86 in - SW 3.5 mph - N/A   Unknown
11:00 PM 74 °F 41 °F 20%  in - West 3.5 mph - -  
11:00 PM 73.4 °F 41.0 °F 31% 29.86 in - West 3.5 mph - N/A   Unknown